Regional Weather Roundup
Issued by NWS

Home | Current Version | Previous Version | Graphics & Text | Print | Product List | Glossary On
Versions: 1 2 3 4 5 6 7 8 9 10 11 12 13 14 15 16 17 18 19 20 21 22 23 24 25 26 27 28 29 30 31 32 33 34 35 36 37 38 39 40 41 42 43 44 45 46 47 48 49 50
000
ASUS43 KOAX 220402
RWRNE

WEATHER ROUNDUP FOR NEBRASKA
NATIONAL WEATHER SERVICE OMAHA NE
1100 PM CDT SUN SEP 21 2014

NOTES: SATELLITE DATA IS BEING USED TO AUGMENT CLOUD COVER ABOVE
       12000 FEET.
       "FAIR" INDICATES FEW OR NO CLOUDS BELOW 12,000 FEET WITH NO
       SIGNIFICANT WEATHER AND/OR OBSTRUCTIONS TO VISIBILITY.

  * THESE STATIONS DO NOT REPORT WEATHER SUCH AS RAIN...SNOW OR FOG.

NEZ001>004-019>022-054>056-220500-
NEBRASKA PANHANDLE

CITY           SKY/WX    TMP DP  RH WIND       PRES   REMARKS
SCOTTSBLUFF    MOCLDY    59  44  57 E10       30.29S
ALLIANCE       PTCLDY    53  43  68 SE8       30.29F
CHADRON        PTCLDY    62  40  44 S16       30.24F
KIMBALL        CLOUDY    59  42  52 SE9       30.30F
SIDNEY         CLOUDY    63  40  42 SE12      30.32F
$$

NEZ057>060-069>072-079>082-220500-
SOUTHWEST NEBRASKA

CITY           SKY/WX    TMP DP  RH WIND       PRES   REMARKS
NORTH PLATTE   PTCLDY    50  42  74 E6        30.31R
IMPERIAL       CLOUDY    62  43  49 SE7       30.32S
LEXINGTON      PTCLDY    52  46  80 CALM      30.31S
MCCOOK         MOCLDY    61  43  51 E3        30.31R
OGALLALA       MOCLDY    59  46  61 E5        30.31S
$$

NEZ005>010-023>029-035>040-094-220500-
NORTH CENTRAL NEBRASKA

CITY           SKY/WX    TMP DP  RH WIND       PRES   REMARKS
VALENTINE      PTCLDY    48  39  71 CALM      30.29S
AINSWORTH      CLEAR     46  40  80 SE5       30.30S
BROKEN BOW     PTCLDY    47  42  83 CALM      30.31R
O`NEILL        CLEAR     52  49  91 CALM      30.30S
ORD            CLEAR     47  44  90 CALM      30.29S
THEDFORD       MOCLDY    55  40  57 CALM      30.32S
$$

NEZ041-046>049-061>064-073>077-083>087-220500-
SOUTH CENTRAL NEBRASKA

CITY           SKY/WX    TMP DP  RH WIND       PRES   REMARKS
GRAND ISLAND   CLEAR     52  45  77 CALM      30.30S
AURORA         CLEAR     51  46  84 NE3       30.30S
HASTINGS       CLEAR     54  45  71 CALM      30.30R
HEBRON         CLEAR     50  46  85 CALM      30.29S
HOLDREGE       PTCLDY    53  45  73 CALM      30.30S
KEARNEY *      PTCLDY    55  43  62 N3        30.31R
YORK           CLEAR     52  48  87 CALM      30.30S
$$

NEZ011>018-030>034-042>045-220500-
NORTHEAST NEBRASKA

CITY           SKY/WX    TMP DP  RH WIND       PRES   REMARKS
NORFOLK        CLEAR     47  45  93 SW6       30.28R
ALBION         CLEAR     49  45  86 CALM      30.30S
BLAIR          CLEAR     57  48  71 CALM      30.26S
COLUMBUS *     CLEAR     48  43  81 CALM      30.30R
FREMONT        CLEAR     55  48  78 CALM      30.27S
TEKAMAH        CLEAR     51  48  89 CALM      30.26S
WAYNE          CLEAR     46  45  96 CALM      30.28S
$$

NEZ050>053-065>068-078-088>093-220500-
SOUTHEAST NEBRASKA

CITY           SKY/WX    TMP DP  RH WIND       PRES   REMARKS
LINCOLN        CLEAR     50  47  89 CALM      30.29R
OMAHA EPPLEY   CLEAR     55  52  89 NE3       30.27R
BEATRICE       CLEAR     52  48  86 CALM      30.28R
FALLS CITY     CLEAR     56  50  80 N3        30.25S
NEBRASKA CITY    N/A     58  42  54 N5        30.27R
PLATTSMOUTH    CLEAR     55  47  75 CALM      30.26S
$$

NEZ044-045-051>053-067-220500-
OMAHA AREA

CITY           SKY/WX    TMP DP  RH WIND       PRES   REMARKS
OMAHA EPPLEY   CLEAR     55  52  89 NE3       30.27R
BLAIR          CLEAR     57  48  71 CALM      30.26S
FREMONT        CLEAR     55  48  78 CALM      30.27S
MILLARD        CLEAR     55  52  89 CALM      30.26S
OFFUTT AFB     CLEAR     50  50  99 CALM      30.26R
PLATTSMOUTH    CLEAR     55  47  75 CALM      30.26S
WAHOO          FAIR      54  48  80 N3        30.27S
$$


USA.gov is the U.S. government's official web portal to all federal, state and local government web resources and services.